Home   Weather   Rouyn-Noranda   Past weeks
Flag for Canada

Past Weather in Rouyn-Noranda, Quebec, Canada — Yesterday and Last 2 Weeks

Now
55 °F

Partly sunny.


Feels Like: 53 °F
Forecast: 53 / 44 °F
Wind: 10 mph from Southeast

Location: Rouyn Airport

Current Time: May 23, 2019 at 1:17:19 pm

Latest Report: May 23, 2019 at 12:00 pm


Visibility: 15 mi

Pressure: 29.81 "Hg

Humidity: 72%

Dew Point: 46 °F

Location of Rouyn-NorandaLocation

Past Weather in Rouyn-Noranda — Graph

°F

Rouyn-Noranda Temperature Yesterday

Maximum temperature yesterday: 63 °F (at 2:00 pm)
Minimum temperature yesterday: 30 °F (at 5:00 am)
Average temperature yesterday: 50 °F

High & Low Weather Summary for the Past Weeks

 TemperatureHumidityPressure
High66 °F (May 14, 4:07 pm)100% (May 9, 4:52 pm)30.47 "Hg (May 9, 4:52 pm)
Low28 °F (May 11, 6:00 am)21% (May 12, 1:00 pm)29.65 "Hg (May 17, 4:53 am)
Average44 °F75%29.96 "Hg
* Reported May 8 12:00 pm — May 23 12:00 pm, Rouyn-Noranda. Weather by CustomWeather, © 2019

Note: Actual official high and low records may vary slightly from our data, if they occured in-between our weather recording intervals... More about our weather records

Advertising

Rouyn-Noranda Weather History for the Previous 24 Hours

Scroll right to see more
 ConditionsComfort  
Time TempWeatherWind HumidityBarometerVisibility
12:00 pm
Thu, May 23
55 °FPartly sunny.10 mph72%29.81 "Hg15 mi
11:00 am54 °FPartly sunny.8 mph82%29.85 "Hg15 mi
10:00 am48 °FMostly cloudy.8 mph87%29.88 "Hg15 mi
9:00 am46 °FMostly cloudy.6 mph93%29.92 "Hg15 mi
8:00 am46 °FMostly cloudy.8 mph87%29.95 "Hg15 mi
7:40 am46 °FMostly cloudy.8 mph87%29.96 "Hg15 mi
7:00 am45 °FLight rain. Fog.6 mph93%29.97 "Hg4 mi
6:00 am48 °FLight rain. Overcast.8 mph71%29.97 "Hg10 mi
5:42 am48 °FLight rain. Mostly cloudy.8 mph71%29.98 "Hg15 mi
5:00 am50 °FPartly cloudy.12 mph62%29.98 "Hg15 mi
4:00 am50 °FPassing clouds.8 mph62%30.00 "Hg15 mi
3:00 am46 °FPartly cloudy.5 mph71%30.01 "Hg15 mi
2:00 am48 °FPassing clouds.8 mph66%30.03 "Hg15 mi
1:00 am48 °FPassing clouds.3 mph66%30.05 "Hg15 mi
12:00 am52 °FPassing clouds.8 mph58%30.07 "Hg15 mi
11:00 pm
Wed, May 22
54 °FOvercast.8 mph54%30.10 "Hg15 mi
10:00 pm54 °FOvercast.8 mph58%30.11 "Hg15 mi
9:00 pm55 °FSprinkles. Mostly cloudy.13 mph51%30.14 "Hg15 mi
8:49 pm54 °FSprinkles. More clouds than sun.6 mph58%30.14 "Hg15 mi
8:00 pm57 °FMostly cloudy.No wind51%30.14 "Hg15 mi
7:00 pm61 °FMostly cloudy.2 mph34%30.14 "Hg15 mi
6:00 pm61 °FOvercast.6 mph31%30.16 "Hg15 mi
5:00 pm61 °FOvercast.8 mph29%30.16 "Hg15 mi
4:00 pm63 °FMostly cloudy.6 mph30%30.19 "Hg15 mi
3:00 pm63 °FMostly cloudy.9 mph34%30.22 "Hg15 mi
2:00 pm63 °FCloudy.8 mph37%30.23 "Hg15 mi
1:00 pm61 °FOvercast.7 mph36%30.26 "Hg15 mi
Weather by CustomWeather, © 2019

See weather overview